DW5686 Weather Reports


Display with metric or nautical units.
time (UTC)temp
F
wind
direction
speed
MPH
gust
MPH
rain 1hr
in
rain 24hr
in
rain mn
in
humidity
%
barometer
mb
20260504013503 56 150 3.0 7.0 0.00 0.00 0.00 52 1016.0
20260504013002 56 137 3.0 7.0 0.00 0.00 0.00 52 1016.1
20260504012502 57 135 2.0 5.0 0.00 0.00 0.00 52 1016.0
20260504012003 57 135 2.0 5.0 0.00 0.00 0.00 51 1016.0
20260504011503 57 144 2.0 5.0 0.00 0.00 0.00 50 1016.1
20260504011003 58 144 2.0 4.0 0.00 0.00 0.00 49 1016.0
20260504010525 58 144 1.0 5.0 0.00 0.00 0.00 49 1015.9
20260504010003 58 139 1.0 5.0 0.00 0.00 0.00 48 1015.9
20260504005503 58 135 2.0 3.0 0.00 0.00 0.00 47 1015.9
20260504005003 59 0 0.0 3.0 0.00 0.00 0.00 47 1015.8
20260504004502 59 154 1.0 4.0 0.00 0.00 0.00 46 1015.8
20260504004002 59 151 2.0 5.0 0.00 0.00 0.00 46 1015.7
20260504003502 59 161 2.0 5.0 0.00 0.00 0.00 45 1015.7
20260504003004 60 173 0.0 6.0 0.00 0.00 0.00 43 1015.7
20260504002502 60 174 1.0 6.0 0.00 0.00 0.00 44 1015.6
20260504002003 61 174 1.0 2.0 0.00 0.00 0.00 41 1015.5
20260504001502 61 174 0.0 2.0 0.00 0.00 0.00 41 1015.4
20260504001004 62 0 0.0 4.0 0.00 0.00 0.00 40 1015.4
20260504000524 62 160 0.0 4.0 0.00 0.00 0.00 39 1015.4
20260504000002 63 214 1.0 3.0 0.00 0.00 0.00 38 1015.2
20260503235503 64 168 1.0 7.0 0.00 0.00 0.00 37 1015.2
20260503235024 64 246 1.0 7.0 0.00 0.00 0.00 36 1015.2
20260503234503 65 211 3.0 7.0 0.00 0.00 0.00 35 1015.3
20260503234003 65 240 2.0 7.0 0.00 0.00 0.00 36 1015.2
20260503233503 65 227 2.0 7.0 0.00 0.00 0.00 36 1015.2
20260503233003 66 196 4.0 7.0 0.00 0.00 0.00 34 1015.2
20260503232524 66 156 4.0 7.0 0.00 0.00 0.00 34 1015.2
20260503232003 66 182 3.0 8.0 0.00 0.00 0.00 34 1015.2
20260503231504 66 151 3.0 9.0 0.00 0.00 0.00 34 1015.2
20260503231003 66 146 3.0 9.0 0.00 0.00 0.00 34 1015.2
20260503230502 66 163 5.0 9.0 0.00 0.00 0.00 33 1015.1
20260503230004 66 223 2.0 8.0 0.00 0.00 0.00 34 1015.1
20260503225503 66 164 5.0 7.0 0.00 0.00 0.00 34 1015.3
20260503225003 66 220 2.0 7.0 0.00 0.00 0.00 33 1015.3
20260503224502 66 170 4.0 7.0 0.00 0.00 0.00 32 1015.2
20260503224002 67 208 3.0 9.0 0.00 0.00 0.00 32 1015.3
20260503223525 67 202 3.0 9.0 0.00 0.00 0.00 32 1015.3
20260503223002 67 223 3.0 7.0 0.00 0.00 0.00 32 1015.3
20260503222503 67 248 3.0 8.0 0.00 0.00 0.00 32 1015.3
20260503222003 67 196 4.0 10.0 0.00 0.00 0.00 32 1015.4
20260503221503 67 210 3.0 10.0 0.00 0.00 0.00 32 1015.4
20260503221003 67 233 3.0 10.0 0.00 0.00 0.00 32 1015.4
20260503220503 67 230 1.0 3.0 0.00 0.00 0.00 31 1015.4
20260503220002 67 229 2.0 9.0 0.00 0.00 0.00 31 1015.5
20260503215524 67 208 3.0 11.0 0.00 0.00 0.00 31 1015.4
20260503215003 67 201 4.0 11.0 0.00 0.00 0.00 31 1015.5
20260503214502 68 163 5.0 11.0 0.00 0.00 0.00 31 1015.6
20260503214002 68 219 4.0 14.0 0.00 0.00 0.00 32 1015.7
20260503213502 68 224 5.0 14.0 0.00 0.00 0.00 30 1015.7
20260503213003 69 197 3.0 11.0 0.00 0.00 0.00 30 1015.8
20260503212504 69 203 3.0 11.0 0.00 0.00 0.00 30 1015.9
20260503212003 69 179 3.0 7.0 0.00 0.00 0.00 28 1015.9
20260503211502 69 180 1.0 8.0 0.00 0.00 0.00 30 1015.9
20260503211003 70 252 3.0 8.0 0.00 0.00 0.00 30 1016.0
20260503210504 70 343 2.0 7.0 0.00 0.00 0.00 28 1016.0
20260503210005 70 21 3.0 8.0 0.00 0.00 0.00 29 1015.9
20260503205504 70 85 1.0 8.0 0.00 0.00 0.00 28 1016.0
20260503205002 70 320 2.0 7.0 0.00 0.00 0.00 31 1016.1
20260503204504 70 217 3.0 10.0 0.00 0.00 0.00 31 1016.1
20260503204003 70 228 6.0 10.0 0.00 0.00 0.00 29 1016.2
20260503203503 70 182 5.0 8.0 0.00 0.00 0.00 31 1016.3
20260503203002 70 236 2.0 6.0 0.00 0.00 0.00 29 1016.2
20260503202503 70 154 2.0 6.0 0.00 0.00 0.00 28 1016.3
20260503202003 70 198 2.0 12.0 0.00 0.00 0.00 29 1016.4
20260503201525 69 219 6.0 12.0 0.00 0.00 0.00 30 1016.4
20260503201024 69 223 4.0 10.0 0.00 0.00 0.00 30 1016.5
20260503200504 68 120 3.0 13.0 0.00 0.00 0.00 28 1016.5
20260503200003 68 198 6.0 15.0 0.00 0.00 0.00 28 1016.6
20260503195503 69 219 8.0 15.0 0.00 0.00 0.00 29 1016.7
20260503195002 70 216 5.0 11.0 0.00 0.00 0.00 30 1016.8
20260503194502 69 182 4.0 9.0 0.00 0.00 0.00 28 1016.7
20260503194024 68 204 4.0 10.0 0.00 0.00 0.00 30 1016.7
20260503193504 69 253 2.0 12.0 0.00 0.00 0.00 29 1017.0
20260503193003 68 244 2.0 12.0 0.00 0.00 0.00 29 1017.1
20260503192503 68 213 6.0 12.0 0.00 0.00 0.00 29 1017.1
20260503192003 68 211 5.0 12.0 0.00 0.00 0.00 30 1017.2
20260503191503 69 218 6.0 12.0 0.00 0.00 0.00 31 1017.3
20260503191024 68 162 6.0 12.0 0.00 0.00 0.00 31 1017.4
20260503190503 69 198 5.0 12.0 0.00 0.00 0.00 29 1017.5
20260503190003 68 236 5.0 12.0 0.00 0.00 0.00 30 1017.6
20260503185503 68 151 2.0 12.0 0.00 0.00 0.00 30 1017.5
20260503185003 68 190 3.0 11.0 0.00 0.00 0.00 30 1017.7
20260503184504 68 219 5.0 11.0 0.00 0.00 0.00 31 1017.7
20260503184003 67 14 3.0 8.0 0.00 0.00 0.00 31 1017.6
20260503183502 67 14 1.0 8.0 0.00 0.00 0.00 33 1017.9
20260503183023 67 20 2.0 7.0 0.00 0.00 0.00 33 1017.9
20260503182503 67 294 4.0 12.0 0.00 0.00 0.00 29 1017.9
20260503182003 66 166 9.0 14.0 0.00 0.00 0.00 33 1017.9
20260503181504 67 190 7.0 14.0 0.00 0.00 0.00 29 1018.0
20260503181002 67 237 2.0 7.0 0.00 0.00 0.00 31 1018.0
20260503180502 67 334 3.0 7.0 0.00 0.00 0.00 33 1018.1
20260503180003 66 53 2.0 11.0 0.00 0.00 0.00 32 1018.1
20260503175503 65 210 2.0 12.0 0.00 0.00 0.00 32 1018.1
20260503175003 66 206 7.0 12.0 0.00 0.00 0.00 30 1018.2
20260503174503 66 222 3.0 7.0 0.00 0.00 0.00 32 1018.4
20260503174003 66 218 2.0 6.0 0.00 0.00 0.00 32 1018.4
20260503173503 66 67 3.0 10.0 0.00 0.00 0.00 34 1018.5
20260503173003 65 201 4.0 13.0 0.00 0.00 0.00 37 1018.6
20260503172503 65 295 2.0 13.0 0.00 0.00 0.00 34 1018.7
20260503172003 65 223 3.0 20.0 0.00 0.00 0.00 34 1018.8
20260503171524 64 223 7.0 20.0 0.00 0.00 0.00 33 1018.9
20260503171003 65 216 5.0 12.0 0.00 0.00 0.00 33 1019.0
20260503170503 64 221 2.0 10.0 0.00 0.00 0.00 38 1018.9
20260503151003 61 226 2.0 12.0 0.00 0.00 0.00 39 1020.2
20260503150503 60 23 3.0 12.0 0.00 0.00 0.00 39 1020.3
20260503131025 53 336 5.0 11.0 0.00 0.00 0.00 52 1020.0
20260503130504 52 349 5.0 11.0 0.00 0.00 0.00 53 1019.9
20260503110504 39 198 1.0 2.0 0.00 0.00 0.00 86 1019.2
20260503090503 40 0 0.0 0.0 0.00 0.00 0.00 84 1017.4
20260503081503 40 0 0.0 2.0 0.00 0.00 0.00 86 1017.0
20260503081004 40 198 0.0 2.0 0.00 0.00 0.00 86 1016.9
20260503080503 40 0 0.0 1.0 0.00 0.00 0.00 84 1016.9
20260503072503 41 0 0.0 0.0 0.00 0.00 0.00 84 1016.5
20260503072002 41 0 0.0 0.0 0.00 0.00 0.00 84 1016.4
20260503071525 41 0 0.0 0.0 0.00 0.00 0.00 84 1016.2
20260503071002 41 0 0.0 0.0 0.00 0.00 0.00 84 1016.2
20260503070524 41 0 0.0 0.0 0.00 0.00 0.00 84 1016.2
20260503055003 43 198 0.0 1.0 0.00 0.00 0.00 84 1016.0
20260503054503 43 0 0.0 1.0 0.00 0.00 0.00 84 1016.1
20260503054002 43 198 0.0 1.0 0.00 0.00 0.00 83 1016.1
20260503053502 43 198 0.0 1.0 0.00 0.00 0.00 83 1016.1
20260503053002 44 0 0.0 2.0 0.00 0.00 0.00 84 1016.1
20260503052503 44 198 1.0 2.0 0.00 0.00 0.00 83 1016.1
20260503052024 44 198 1.0 2.0 0.00 0.00 0.00 83 1016.0
20260503051502 44 198 2.0 2.0 0.00 0.00 0.00 82 1016.0
20260503051002 44 198 2.0 2.0 0.00 0.00 0.00 82 1016.0
20260503050503 44 198 2.0 2.0 0.00 0.00 0.00 82 1016.0
20260503050002 44 0 0.0 0.0 0.00 0.00 0.00 82 1016.0
20260503045503 45 0 0.0 0.0 0.00 0.00 0.00 82 1015.9
20260503045003 44 0 0.0 0.0 0.00 0.00 0.00 82 1015.9
20260503044503 44 0 0.0 2.0 0.00 0.00 0.00 82 1015.8
20260503044003 44 0 0.0 2.0 0.00 0.00 0.00 82 1015.8
20260503043502 45 198 0.0 1.0 0.00 0.00 0.00 81 1015.7
20260503043003 45 0 0.0 0.0 0.00 0.00 0.00 81 1015.7
20260503042523 45 0 0.0 0.0 0.00 0.00 0.00 81 1015.7
20260503042003 45 0 0.0 0.0 0.00 0.00 0.00 79 1015.7
20260503041503 45 0 0.0 1.0 0.00 0.00 0.00 79 1015.5
20260503041002 45 198 0.0 1.0 0.00 0.00 0.00 79 1015.6
20260503040502 46 198 1.0 1.0 0.00 0.00 0.00 78 1015.4
20260503040003 46 0 0.0 1.0 0.00 0.00 0.00 77 1015.4
20260503035523 46 198 0.0 1.0 0.00 0.00 0.00 77 1015.3
20260503035002 46 0 0.0 2.0 0.00 0.00 0.00 76 1015.3
20260503034503 47 198 1.0 2.0 0.00 0.00 0.00 76 1015.2
20260503034002 47 198 0.0 2.0 0.00 0.00 0.00 76 1015.3
20260503033502 47 198 2.0 2.0 0.00 0.00 0.00 75 1015.3
20260503033002 48 198 0.0 2.0 0.00 0.00 0.00 74 1015.3
20260503032503 48 0 0.0 3.0 0.00 0.00 0.00 74 1015.3
20260503032002 48 198 2.0 3.0 0.00 0.00 0.00 74 1015.3
20260503031502 49 198 2.0 3.0 0.00 0.00 0.00 74 1015.3
20260503031002 49 185 2.0 5.0 0.00 0.00 0.00 72 1015.2
20260503030503 49 40 2.0 6.0 0.00 0.00 0.00 72 1015.3
20260503030003 49 17 2.0 6.0 0.00 0.00 0.00 74 1015.3
20260503025503 49 57 1.0 5.0 0.00 0.00 0.00 74 1015.2
20260503025002 49 75 2.0 5.0 0.00 0.00 0.00 74 1015.2
20260503024502 49 0 0.0 3.0 0.00 0.00 0.00 72 1015.1
20260503024002 49 165 2.0 3.0 0.00 0.00 0.00 72 1015.0
20260503023502 49 165 1.0 6.0 0.00 0.00 0.00 72 1015.0
20260503023024 49 37 1.0 6.0 0.00 0.00 0.00 71 1015.0
20260503022502 49 167 1.0 2.0 0.00 0.00 0.00 71 1014.9
20260503022002 49 0 0.0 2.0 0.00 0.00 0.00 72 1015.0
20260503021503 49 167 0.0 2.0 0.00 0.00 0.00 71 1014.8
20260503021003 49 167 0.0 2.0 0.00 0.00 0.00 70 1014.7
20260503020523 49 0 0.0 0.0 0.00 0.00 0.00 70 1014.6
20260503020002 50 0 0.0 2.0 0.00 0.00 0.00 70 1014.6
20260503015503 50 0 0.0 2.0 0.00 0.00 0.00 68 1014.4
20260503015023 50 167 1.0 2.0 0.00 0.00 0.00 68 1014.2
20260503014504 51 167 0.0 2.0 0.00 0.00 0.00 68 1014.1
20260503014003 51 167 1.0 3.0 0.00 0.00 0.00 67 1014.0